Hourly Data Report for September 08, 2017

All times are specified in Local Standard Time (LST). Add 1 hour to adjust for Daylight Saving Time where and when it is observed.

MONCTON INTL A
NEW BRUNSWICK

46°06'44.000" N
64°40'43.000" W
70.70 m
8103201
71705
YQM

Download Data

Hourly Data (September 2017)
Hourly Data Report for September 8, 2017
Temp Definition
°C
Dew Point Temp Definition
°C
Rel Hum Definition
%
Wind Dir Definition
10's deg

Wind Spd Definition
km/h
Visibility Definition
km
Stn Press Definition
kPa
Hmdx Definition


Wind Chill Definition


Weather Definition


TIME
00:00 Legend Double Dagger 13.9 12.7 92 22 13 24.1 100.10     LegendNANA
01:00 Legend Double Dagger 13.5 12.5 94 22 14 24.1 100.11     LegendNANA
02:00 Legend Double Dagger 14.4 13.3 93 22 16 24.1 100.15     Cloudy
03:00 Legend Double Dagger 15.0 13.6 92 22 19 24.1 100.17     LegendNANA
04:00 Legend Double Dagger 14.8 13.5 92 22 12 24.1 100.19     LegendNANA
05:00 Legend Double Dagger 14.4 13.0 91 22 16 24.1 100.20     Mostly Cloudy
06:00 Legend Double Dagger 14.5 12.9 90 21 16 24.1 100.27     LegendNANA
07:00 Legend Double Dagger 14.7 13.0 90 21 16 24.1 100.38     LegendNANA
08:00 Legend Double Dagger 15.4 13.2 87 21 20 24.1 100.48     Mostly Cloudy
09:00 Legend Double Dagger 16.7 13.2 79 23 21 24.1 100.54     LegendNANA
10:00 Legend Double Dagger 18.5 13.3 71 21 21 24.1 100.57     LegendNANA
11:00 Legend Double Dagger 19.2 13.0 67 23 19 24.1 100.59     Mostly Cloudy
12:00 Legend Double Dagger 20.2 12.3 60 24 21 24.1 100.58     LegendNANA
13:00 Legend Double Dagger 22.1 11.5 51 22 22 24.1 100.57     LegendNANA
14:00 Legend Double Dagger 22.5 12.3 52 23 17 24.1 100.61 25   Mostly Cloudy
15:00 Legend Double Dagger 22.3 11.0 48 23 17 24.1 100.63     LegendNANA
16:00 Legend Double Dagger 22.4 10.2 46 24 16 24.1 100.67     LegendNANA
17:00 Legend Double Dagger 21.2 11.7 54 21 17 24.1 100.71     Mainly Clear
18:00 Legend Double Dagger 19.6 11.7 60 23 18 24.1 100.73     LegendNANA
19:00 Legend Double Dagger 17.2 10.6 65 22 10 24.1 100.80     LegendNANA
20:00 Legend Double Dagger 16.1 10.7 70 22 11 24.1 100.90     Clear
21:00 Legend Double Dagger 14.7 10.0 73 20 10 24.1 100.96     LegendNANA
22:00 Legend Double Dagger 13.2 9.9 80 18 11 24.1 100.96     LegendNANA
23:00 Legend Double Dagger 12.6 9.6 82 20 12 24.1 101.00     Mainly Clear

Notes on Data Quality.

Legend

  • E = Estimated
  • M = Missing
  • NA = Not Available
  • ‡ = Partner data that is not subject to review by the National Climate Archives
Date modified: